Dewpoint
29 26 24 25 26 26 27 27 24 23 26 26 26 35 38 41 41 41 42 43 43 44 45 47 48 49 49 50 50 51 51 52 53 55 64 65 66 67 69 69 70 70 69 70
26 23 26 27 29 27 29 27 24 26 26 26 26 33 39 41 42 43 43 43 43 43 44 45 47 48 49 49 50 50 51 52 53 54 58 63 66 67 67 68 69 69 69 69
25 24 27 27 27 26 26 26 24 24 26 28 28 34 38 41 42 43 43 44 44 44 44 45 46 47 48 49 49 50 51 51 52 54 55 58 62 64 65 66 67 67 68 68
23 24 28 28 27 26 23 26 26 26 28 25 30 25 34 39 40 41 42 43 43 44 44 44 45 46 48 49 50 51 51 51 52 53 53 53 53 55 62 65 66 66 67 68
22 25 25 24 24 27 25 29 32 33 31 28 28 26 30 39 38 39 41 42 43 44 44 44 45 46 47 49 49 51 52 52 52 53 53 53 53 54 57 60 65 66 67 67
25 27 26 24 26 28 32 33 31 29 26 22 29 28 27 36 38 40 42 43 44 44 44 44 46 47 47 49 50 51 52 53 53 53 54 54 53 53 54 58 59 65 66 67
24 23 25 26 22 26 30 29 23 23 24 19 28 29 31 38 42 42 42 42 43 45 44 44 45 46 47 48 49 51 52 53 54 54 55 55 54 54 54 56 56 59 63 65
22 19 23 26 24 24 27 31 25 16 21 25 31 28 32 41 43 43 42 42 44 45 45 44 45 46 47 48 49 50 51 53 53 54 54 56 55 54 54 55 56 58 60 63
23 23 26 27 27 33 33 33 35 27 25 27 28 29 32 39 39 39 40 40 41 44 45 45 46 47 47 48 49 49 50 51 53 54 55 55 55 55 54 55 57 60 61 63
25 23 26 26 34 34 33 37 29 29 18 23 26 27 29 34 37 39 40 40 41 44 45 45 46 47 47 48 48 49 50 50 53 54 54 54 55 55 55 55 56 60 62 63
26 25 26 25 29 31 31 31 34 32 29 24 22 26 34 37 38 39 40 40 41 44 45 46 46 47 47 47 47 48 48 50 51 53 53 54 55 56 55 54 56 58 63 64
29 25 23 23 26 29 33 33 31 33 31 33 33 32 39 40 39 40 40 40 40 44 45 46 46 46 47 47 46 47 48 50 51 52 52 53 55 56 56 55 57 61 64 65
28 26 24 19 20 30 31 33 32 35 35 29 32 29 36 39 39 38 39 41 40 43 45 46 46 45 46 46 47 47 47 49 49 50 52 52 53 54 56 55 58 63 64 64
34 29 26 22 22 29 30 32 33 35 34 34 33 33 36 37 36 38 40 41 41 43 45 46 45 45 45 45 46 47 47 48 49 49 51 51 52 56 57 56 61 63 63 63
34 30 32 32 32 33 33 33 33 34 36 32 33 35 37 36 36 39 41 41 41 43 45 45 44 44 45 46 45 45 46 47 48 49 50 51 52 55 57 59 62 62 61 58
35 30 32 30 32 32 32 35 37 37 37 37 37 35 36 36 38 39 40 40 41 43 45 45 44 44 45 46 45 45 45 46 47 49 50 52 54 55 57 59 60 57 54 53
32 31 30 29 32 32 32 36 37 36 37 36 34 35 36 37 38 39 40 40 41 45 45 44 43 44 45 46 44 44 45 46 48 48 50 54 53 53 55 54 54 52 50 49
32 32 33 30 31 27 32 39 40 40 39 39 38 39 38 38 39 41 41 40 44 45 44 44 44 44 46 44 44 44 45 46 47 47 49 52 51 51 52 50 49 47 46 45
35 34 34 30 30 31 32 39 38 36 35 36 38 38 37 38 39 38 39 44 45 44 44 44 45 45 44 43 43 44 45 46 45 46 47 48 50 49 48 47 46 46 44 43
37 37 34 33 31 23 31 37 39 37 31 35 38 37 38 38 35 36 41 44 44 44 43 43 44 44 41 42 43 44 44 44 44 45 46 47 48 47 46 45 44 44 43 42
34 34 31 30 32 34 37 35 37 28 28 34 38 38 38 37 38 40 41 44 43 43 42 43 42 40 41 42 43 44 43 42 44 45 45 45 46 45 45 44 44 43 41 39
30 32 31 31 30 27 34 33 30 32 36 38 39 38 38 39 39 40 44 44 42 41 41 41 40 39 41 43 44 43 42 43 44 43 43 44 44 45 44 43 42 41 40 38
23 30 29 31 31 34 34 33 35 37 39 38 37 38 38 38 39 40 44 42 41 40 42 40 38 39 41 43 44 42 42 43 43 42 42 42 42 42 42 41 40 38 38 37
31 33 30 30 29 31 33 35 36 36 36 37 38 39 39 38 39 42 42 41 40 41 41 39 39 40 41 42 42 42 42 41 41 41 41 41 41 41 41 41 40 38 38 37
31 33 31 31 32 32 33 34 35 37 40 40 42 40 40 40 40 43 41 40 40 41 40 38 39 40 41 41 41 42 42 41 40 39 39 38 38 37 37 38 40 40 40 38
34 31 30 28 31 31 32 35 36 37 40 40 41 42 43 42 43 43 40 40 41 40 38 38 40 40 40 39 39 40 41 40 40 39 39 38 38 37 37 36 36 35 35 34
Lifted_Index
8 8 7 7 6 6 5 5 5 5 5 5 5 5 4 3 3 3 2 2 2 2 3 4 4 4 4 4 4 4 4 4 4 3 1 -1 -3 -4 -5 -5 -5 -5 -5 -5
8 7 7 6 6 5 5 5 5 4 4 4 5 4 4 3 2 2 2 2 2 2 3 3 4 4 4 4 4 5 5 5 4 4 3 1 -1 -3 -4 -4 -5 -5 -5 -5
7 7 6 5 5 4 4 4 4 4 3 3 4 3 3 2 2 2 2 2 2 2 3 3 4 4 4 4 4 5 5 5 5 5 4 3 1 -1 -2 -4 -4 -4 -5 -5
6 5 5 4 4 4 4 3 3 3 3 3 3 2 2 1 1 1 1 2 2 3 4 4 4 4 4 4 4 4 4 4 5 5 5 4 3 2 -0 -2 -3 -4 -4 -4
5 5 4 4 3 3 3 3 3 2 2 2 2 2 2 1 1 1 1 2 2 3 4 4 4 4 4 4 4 4 4 4 4 5 5 5 5 4 2 0 -1 -2 -3 -4
5 5 4 4 4 4 3 3 2 2 2 2 2 2 2 1 1 1 1 1 2 3 4 4 4 4 4 4 4 4 4 4 5 5 5 5 5 5 4 3 1 -1 -2 -3
5 5 5 5 4 4 3 3 2 1 1 1 2 2 1 0 0 1 1 2 2 3 4 4 5 4 4 5 5 5 4 4 5 5 4 4 5 5 5 4 3 1 -0 -1
3 4 5 5 4 3 3 2 1 1 1 1 1 1 1 0 0 1 1 2 3 3 4 5 5 5 5 5 5 5 4 4 5 5 4 4 4 4 4 4 3 2 1 0
3 3 4 4 3 2 2 2 1 1 1 1 1 1 1 1 1 1 2 3 3 4 4 5 5 5 5 5 5 4 4 4 4 4 4 4 4 3 3 3 3 2 1 1
3 3 4 4 3 2 2 2 2 1 1 1 1 1 1 1 1 2 2 3 4 4 4 5 5 5 5 4 4 4 4 4 4 4 4 4 4 3 3 3 3 2 0 -0
3 3 4 4 3 3 2 2 2 2 1 1 1 1 1 1 2 2 3 3 4 4 4 5 5 5 4 4 4 5 4 4 4 4 4 4 4 3 3 2 2 1 -1 -2
4 4 3 3 3 2 2 2 2 2 1 1 1 1 1 1 2 3 3 3 4 4 4 5 5 5 4 4 4 5 5 4 4 3 4 3 3 2 2 1 0 -1 -2 -3
4 4 3 3 3 2 2 2 2 1 1 1 0 0 1 1 2 3 3 4 4 4 4 5 5 5 4 4 5 5 5 4 4 3 3 3 2 1 0 -0 -1 -3 -3 -3
4 4 3 3 3 2 2 1 1 1 1 0 0 0 1 2 2 3 4 4 4 4 4 5 6 6 5 4 4 5 4 4 4 3 3 2 1 1 -0 -1 -2 -3 -3 -3
4 4 3 3 2 2 2 1 1 0 0 0 0 1 1 2 3 3 4 4 4 4 5 6 6 6 5 4 4 4 4 4 3 3 3 2 1 0 -1 -2 -3 -3 -3 -2
4 3 3 2 2 2 1 0 0 0 0 0 0 1 1 2 3 3 4 4 4 4 5 6 7 6 5 4 4 4 4 4 4 3 3 2 1 0 -1 -2 -2 -2 -2 -1
3 3 2 2 1 1 1 0 0 0 0 0 1 1 2 2 3 3 4 4 4 4 5 6 7 6 5 5 5 5 5 5 4 3 3 2 1 0 -0 -1 -1 -1 -1 -1
2 2 2 1 1 1 1 0 0 0 1 1 1 1 2 2 3 3 4 4 4 4 5 6 7 6 6 6 7 7 6 6 5 4 3 2 1 0 0 -0 -1 -1 -1 -0
1 1 1 1 1 1 1 1 1 1 1 2 1 1 2 2 3 3 4 4 3 4 5 6 7 6 6 7 8 8 7 7 6 5 4 3 1 0 0 -0 -1 -1 -1 -0
1 0 1 1 1 1 1 1 1 2 2 2 2 2 2 3 3 4 4 3 3 4 5 6 7 6 6 8 9 9 8 8 7 6 5 4 2 1 0 -0 -0 -0 -0 0
1 1 0 0 0 1 1 1 2 2 3 2 2 2 3 3 3 4 3 3 3 4 5 6 6 6 7 9 10 10 9 9 9 8 7 6 4 3 2 1 0 1 2 2
2 1 1 1 1 1 2 2 3 3 3 3 3 3 3 3 4 4 3 3 3 4 5 6 6 7 8 10 10 10 10 10 10 9 8 7 6 6 5 3 3 4 4 4
3 3 2 2 2 3 3 4 4 4 4 3 4 4 4 4 4 4 4 3 3 4 5 6 6 7 8 10 11 11 11 12 11 10 9 9 8 9 8 7 6 6 6 6
4 4 4 4 4 4 5 5 5 5 4 4 4 4 4 4 4 4 4 3 4 4 5 6 6 7 8 10 11 11 12 13 12 11 10 10 10 10 10 9 8 7 7 6
5 4 4 4 5 5 5 5 5 5 4 4 4 4 4 5 4 4 4 4 4 4 5 6 6 7 9 11 12 12 14 14 13 11 10 10 10 10 10 10 10 10 10 10
5 4 4 5 5 5 5 4 4 4 4 4 4 4 5 5 4 4 4 4 4 4 5 6 7 7 9 11 12 13 14 15 13 12 11 10 10 10 10 10 11 13 15 15